User: anonymous   Login
Location: Caltech
(34.1382°N, 118.1253°W)
Time: 18:58:07
(UTC-08:00)
Language:

CZ-4B DEB - Orbit

View from above orbital plane
View from above orbital plane
View from above satellite
View from above satellite

Ground track
Ground track

The orbit data is extracted from the following two-line orbital elements,

1 27433U 02024D   14330.83441969  .00000397  00000-0  24210-3 0  9858
2 27433 098.8481 294.0988 0014805 164.7408 250.6985 14.11701798645466
Epoch (UTC): 26 November 2014 20:01:33
Eccentricity: 0.0014805
inclination: 98.8481°
perigee height: 843 km
apogee height: 864 km
right ascension of ascending node: 294.0988°
argument of perigee: 164.7408°
revolutions per day: 14.11701798
mean anomaly at epoch: 250.6985°
orbit number at epoch: 64546

The dashed part of the orbit path shows where the satellite is in the earth's shadow,  

DLR